This is the latest recevied weather packets stored in our database for station/object ON5MM-5. If no packets are shown the sender has not sent any weather packets the latest 1 day(s).
| Time | Temp. | Humidity | Pressure | Rain* | Wind** | Luminosity | Snow |
|---|---|---|---|---|---|---|---|
| 1778095203 | 7.22° C | 91% | 1012.5 hPa | 0.25 mm | 0 m/s | - | - |
| 1778091902 | 7.22° C | 90% | 1012.2 hPa | 0 mm | 0 m/s | - | - |
| 1778090103 | 7.78° C | 90% | 1011.9 hPa | 0 mm | 0 m/s | - | - |
| 1778088903 | 7.78° C | 90% | 1011.7 hPa | 0 mm | 0 m/s | - | - |
| 1778086203 | 7.78° C | 90% | 1011.5 hPa | 0 mm | 0.45 m/s, ° | - | - |
| 1778085302 | 7.78° C | 90% | 1011.3 hPa | 0 mm | 0.45 m/s, ° | - | - |
| 1778082902 | 7.78° C | 91% | 1011.1 hPa | 0 mm | 0 m/s | - | - |
| 1778082603 | 7.78° C | 91% | 1011.1 hPa | 0 mm | 0 m/s | - | - |
| 1778081702 | 7.78° C | 91% | 1011.1 hPa | 0 mm | 0 m/s | - | - |
| 1778081103 | 7.78° C | 91% | 1011 hPa | 0 mm | 1.34 m/s, ° | - | - |
| 1778079902 | 7.78° C | 90% | 1010.9 hPa | 0.25 mm | 2.24 m/s, ° | - | - |
| 1778079303 | 7.78° C | 90% | 1011 hPa | 0.25 mm | 0.45 m/s, ° | - | - |
| 1778078403 | 7.78° C | 90% | 1010.9 hPa | 0.25 mm | 1.79 m/s, ° | - | - |
| 1778076903 | 7.78° C | 90% | 1010.9 hPa | 0 mm | 1.79 m/s, ° | - | - |
| 1778076603 | 8.33° C | 90% | 1010.9 hPa | 0 mm | 0.89 m/s, ° | - | - |
| 1778076003 | 8.33° C | 90% | 1010.8 hPa | 0 mm | 0 m/s | - | - |
| 1778073902 | 7.78° C | 89% | 1010.8 hPa | 0 mm | 2.24 m/s, ° | - | - |
| 1778073303 | 7.78° C | 89% | 1010.8 hPa | 0 mm | 1.34 m/s, ° | - | - |
| 1778072702 | 8.33° C | 89% | 1010.6 hPa | 0 mm | 1.34 m/s, ° | - | - |
| 1778069402 | 8.89° C | 89% | 1010.2 hPa | 0.25 mm | 2.24 m/s, ° | - | - |
| 1778067602 | 8.89° C | 90% | 1009.9 hPa | 0.51 mm | 1.34 m/s, ° | - | - |
| 1778066702 | 8.89° C | 90% | 1009.9 hPa | 0.25 mm | 1.34 m/s, ° | - | - |
| 1778065803 | 8.89° C | 90% | 1009.8 hPa | 0.25 mm | 1.79 m/s, ° | - | - |
| 1778065502 | 8.89° C | 90% | 1009.7 hPa | 0.51 mm | 2.24 m/s, ° | - | - |
| 1778064302 | 8.89° C | 90% | 1009.7 hPa | 0.25 mm | 1.34 m/s, ° | - | - |
* Rain latest hour (hover to see other rain measurements)
** Current wind speed in m/s (hover to see current wind gust speed)